This is the latest recevied weather packets stored in our database for station/object DL9GRB-13. If no packets are shown the sender has not sent any weather packets the latest 10 day(s).
| Time | Temp. | Humidity | Pressure | Rain* | Wind** | Luminosity | Snow |
|---|---|---|---|---|---|---|---|
| 1777876267 | 14.44° C | 79% | 1009.7 hPa | 0 mm | - | 75 W/m² | - |
| 1777876087 | 14.44° C | 79% | 1009.6 hPa | 0 mm | - | 85 W/m² | - |
| 1777875907 | 14.44° C | 78% | 1009.5 hPa | 0 mm | - | 86 W/m² | - |
| 1777875727 | 14.44° C | 79% | 1009.3 hPa | 0 mm | - | 220 W/m² | - |
| 1777875547 | 14.44° C | 79% | 1009.4 hPa | 0 mm | - | 177 W/m² | - |
| 1777875367 | 14.44° C | 80% | 1009.2 hPa | 0 mm | - | 182 W/m² | - |
| 1777875187 | 14.44° C | 79% | 1009.3 hPa | 0 mm | - | 112 W/m² | - |
| 1777875007 | 14.44° C | 79% | 1009.3 hPa | 0 mm | - | 133 W/m² | - |
| 1777874827 | 14.44° C | 79% | 1009.2 hPa | 0 mm | - | 123 W/m² | - |
| 1777874647 | 14.44° C | 80% | 1009.1 hPa | 0 mm | - | 147 W/m² | - |
| 1777874467 | 14.44° C | 81% | 1008.9 hPa | 0 mm | - | 118 W/m² | - |
| 1777874287 | 15° C | 81% | 1009.1 hPa | 0 mm | - | 123 W/m² | - |
| 1777874107 | 15° C | 80% | 1009.2 hPa | 0 mm | - | 108 W/m² | - |
| 1777873927 | 15° C | 81% | 1008.8 hPa | 0 mm | - | 104 W/m² | - |
| 1777873747 | 15.56° C | 81% | 1008.7 hPa | 0 mm | - | 79 W/m² | - |
| 1777873567 | 15.56° C | 81% | 1008.7 hPa | 0 mm | - | 53 W/m² | - |
| 1777873387 | 15.56° C | 80% | 1008.6 hPa | 0 mm | - | 35 W/m² | - |
| 1777873207 | 16.11° C | 80% | 1008.6 hPa | 0 mm | - | 51 W/m² | - |
| 1777873027 | 16.11° C | 80% | 1008.3 hPa | 0 mm | - | 91 W/m² | - |
| 1777872847 | 16.11° C | 80% | 1008.3 hPa | 0 mm | - | 105 W/m² | - |
| 1777872667 | 16.11° C | 80% | 1008.4 hPa | 0 mm | - | 114 W/m² | - |
| 1777872487 | 15.56° C | 81% | 1008.5 hPa | 0 mm | - | 162 W/m² | - |
| 1777872307 | 15.56° C | 81% | 1008.4 hPa | 0 mm | - | 82 W/m² | - |
| 1777872127 | 15.56° C | 82% | 1008.4 hPa | 0 mm | - | 95 W/m² | - |
| 1777871947 | 15.56° C | 82% | 1008.4 hPa | 0 mm | - | 99 W/m² | - |
* Rain latest hour (hover to see other rain measurements)
** Current wind speed in m/s (hover to see current wind gust speed)